Location: Buffign�court
(47.8126°N, 6.0176°E)
Time: 20:03:20
(UTC+00:00)

SJ 16-02 - Pass Details

Date: 16 June 2021
Orbit: 606 x 616 km, 75.0° (Epoch: 31 July)

Event Time Altitude Azimuth Distance (km) Brightness Sun altitude
Rises 23:48:29 0° 341° (NNW) 2,877 6.0 -18.8°
Reaches altitude 10° 23:50:45 10° 344° (NNW) 1,967 5.0 -18.7°
Maximum altitude 23:55:07 66° 67° (ENE) 667 1.5 -18.7°
Enters shadow 23:57:03 32° 140° (SE) 1,056 2.2 -18.7°
